This is the latest recevied weather packets stored in our database for station/object KB2SKP. If no packets are shown the sender has not sent any weather packets the latest 10 day(s).
| Time | Temp. | Humidity | Pressure | Rain* | Wind** | Luminosity | Snow |
|---|---|---|---|---|---|---|---|
| 1777480898 | 17.78° C | 70% | 1009.8 hPa | 0 mm | - | 39 W/m² | - |
| 1777480595 | 17.78° C | 69% | 1009.8 hPa | 0 mm | - | 47 W/m² | - |
| 1777480292 | 17.78° C | 69% | 1009.7 hPa | 0 mm | - | 61 W/m² | - |
| 1777479987 | 17.78° C | 68% | 1009.7 hPa | 0 mm | - | 69 W/m² | - |
| 1777479684 | 17.78° C | 68% | 1009.3 hPa | 0 mm | - | 95 W/m² | - |
| 1777479383 | 17.78° C | 68% | 1009.6 hPa | 0 mm | - | 114 W/m² | - |
| 1777479078 | 17.78° C | 67% | 1009.7 hPa | 0 mm | - | 121 W/m² | - |
| 1777478776 | 18.33° C | 67% | 1009.7 hPa | 0 mm | - | 142 W/m² | - |
| 1777478472 | 18.89° C | 66% | 1009.6 hPa | 0 mm | - | 160 W/m² | - |
| 1777478169 | 18.33° C | 67% | 1009.8 hPa | 0 mm | - | 162 W/m² | - |
| 1777477865 | 17.78° C | 68% | 1009.9 hPa | 0 mm | - | 156 W/m² | - |
| 1777477561 | 17.22° C | 69% | 1009.9 hPa | 0 mm | - | 138 W/m² | - |
| 1777477257 | 17.78° C | 69% | 1009.9 hPa | 0 mm | - | 91 W/m² | - |
| 1777476954 | 17.78° C | 68% | 1009.9 hPa | 0 mm | - | 82 W/m² | - |
| 1777476652 | 18.33° C | 67% | 1010.2 hPa | 0 mm | - | 101 W/m² | - |
| 1777476348 | 17.78° C | 67% | 1010.4 hPa | 0 mm | - | 127 W/m² | - |
| 1777476044 | 17.78° C | 67% | 1010.7 hPa | 0 mm | - | 136 W/m² | - |
| 1777475740 | 17.22° C | 70% | 1010.5 hPa | 0 mm | - | 110 W/m² | - |
| 1777475437 | 16.67° C | 70% | 1010.9 hPa | 0 mm | - | 82 W/m² | - |
| 1777475132 | 16.67° C | 70% | 1011 hPa | 0 mm | - | 113 W/m² | - |
| 1777474829 | 16.11° C | 70% | 1010.9 hPa | 0 mm | - | 159 W/m² | - |
| 1777474524 | 16.67° C | 69% | 1010.8 hPa | 0 mm | - | 132 W/m² | - |
| 1777474221 | 16.11° C | 70% | 1010.9 hPa | 0 mm | - | 158 W/m² | - |
| 1777473919 | 16.11° C | 70% | 1011.1 hPa | 0 mm | - | 161 W/m² | - |
| 1777473616 | 15.56° C | 71% | 1011.2 hPa | 0 mm | - | 144 W/m² | - |
* Rain latest hour (hover to see other rain measurements)
** Current wind speed in m/s (hover to see current wind gust speed)